GOKTURK 1A (41875 NORAD) Tracking and Keplerian Element Data

This shows tracking and keplerian element data for the satellite.

Feedback or suggestion? Click here.




ElementValue
Catalog41875
NameGOKTURK 1A
Epoch Orbit9603
Epoch Day266.53076322
Epoch Year2018
RAAN159.5702
Inclination98.1581
Eccentricity0.0001767
Argument of Perigee69.2946
Mean Anonmoly290.8439
Mean Motion14.62871413
Decay Rate2.9E-07
L11 41875U 16073A 18266.53076322 .00000029 00000-0 14802-4 0 9993
L22 41875 98.1581 159.5702 0001767 69.2946 290.8439 14.62871413 96035

Live tracking and technical data element details for GOKTURK 1A (NORAD 41875). GOKTURK 1A can be tracked NOW for your location showing map with azimuth and elevation plus other details from your city location.

Track the satellite on the map from your city or location and see movement details for azimuth, elevation, latitude, longitude, range, height, and movement on the map or in text.







IsCatalogInMostPopularTable: catalog: 41875, numindb: 120
Update: records affected: 1



GetName: 41875 GOKTURK 1A

Hit Count: updated at: Tue, 25 Sep 2018 14:32:47 GMT